Terminal Aerodrome Forecast
Issued by NWS Melbourne, FL

Home | Current Version | Previous Version | Text Only | Print | Product List | Glossary On
Versions: 1 2 3 4 5 6 7 8 9 10 11 12 13 14 15 16 17 18 19 20 21 22 23 24
000
FTUS42 KMLB 301738
TAFMCO
TAF
KMCO 301738Z 3018/3118 17011KT P6SM SCT060 SCT250
     FM310000 14007KT P6SM BKN060
     FM310300 17005KT P6SM SCT040
     FM311500 19014G20KT P6SM FEW030=

USA.gov is the U.S. government's official web portal to all federal, state and local government web resources and services.